When you browse on this site, cookies collect data to enhance your experience and personalize the content and advertising you see.
Visit our Privacy Policy to learn more. By continuing to use the site, you agree to this use of cookies and data.
  • Em Portugal
  • Lista de países
  • Para 7 dias
  • Temperatura da água
  • Mapas de satélite
  • Mapa do tempo
  • Widgets de tempo
  • user-avatar
    Iniciar Sessão

    Previsão horária em Ludwinowo

    Hoje, 24 Maio, Sexta-feira

    Tempo Temperatura Precipitação Vento Pressão Humidade
    00:00 +11°C° 0 mm 4 m/s 744 mmHg 94%
    01:00 +10°C° 0 mm 4 m/s 744 mmHg 95%
    02:00 +10°C° 0 mm 4 m/s 744 mmHg 95%
    03:00 +10°C° 0 mm 4 m/s 744 mmHg 94%
    04:00 +10°C° 0 mm 4 m/s 744 mmHg 92%
    05:00 +10°C° 0 mm 4 m/s 744 mmHg 91%
    06:00 +11°C° 0 mm 3 m/s 745 mmHg 89%
    07:00 +12°C° 0 mm 3 m/s 745 mmHg 86%
    08:00 +12°C° 0 mm 3 m/s 745 mmHg 84%
    09:00 +14°C° 0 mm 3 m/s 745 mmHg 79%
    10:00 +17°C° 0 mm 3 m/s 745 mmHg 74%
    11:00 +19°C° 0 mm 3 m/s 745 mmHg 69%
    12:00 +19°C° 0 mm 3 m/s 744 mmHg 68%
    13:00 +20°C° 0 mm 3 m/s 744 mmHg 67%
    14:00 +20°C° 0 mm 3 m/s 744 mmHg 66%
    15:00 +20°C° 0 mm 4 m/s 744 mmHg 66%
    16:00 +20°C° 0 mm 4 m/s 744 mmHg 65%
    17:00 +20°C° 0 mm 4 m/s 743 mmHg 65%
    18:00 +18°C° 0 mm 3 m/s 743 mmHg 70%
    19:00 +17°C° 0 mm 3 m/s 743 mmHg 74%
    20:00 +14°C° 0 mm 3 m/s 743 mmHg 79%
    21:00 +14°C° 0 mm 2 m/s 743 mmHg 80%
    22:00 +12°C° 0 mm 2 m/s 743 mmHg 82%
    23:00 +10°C° 0 mm 2 m/s 743 mmHg 83%

    Amanhã, 25 Maio, Sábado

    Tempo Temperatura Precipitação Vento Pressão Humidade
    00:00 +10°C° 0 mm 2 m/s 743 mmHg 82%
    01:00 +10°C° 0 mm 1 m/s 743 mmHg 81%
    02:00 +10°C° 0 mm 1 m/s 743 mmHg 80%
    03:00 +10°C° 0 mm 1 m/s 742 mmHg 80%
    04:00 +10°C° 0 mm 1 m/s 742 mmHg 79%
    05:00 +9°C° 0 mm 2 m/s 742 mmHg 79%
    06:00 +12°C° 0 mm 2 m/s 742 mmHg 77%
    07:00 +13°C° 0 mm 3 m/s 742 mmHg 74%
    08:00 +15°C° 0 mm 4 m/s 742 mmHg 72%
    09:00 +17°C° 0 mm 4 m/s 742 mmHg 71%
    10:00 +18°C° 0 mm 4 m/s 742 mmHg 69%
    11:00 +18°C° 0 mm 4 m/s 742 mmHg 67%
    12:00 +19°C° 0.3 mm 5 m/s 742 mmHg 66%
    13:00 +19°C° 0.3 mm 5 m/s 742 mmHg 66%
    14:00 +20°C° 0.3 mm 6 m/s 742 mmHg 65%
    15:00 +19°C° 0 mm 6 m/s 742 mmHg 66%
    16:00 +17°C° 0 mm 6 m/s 741 mmHg 66%
    17:00 +17°C° 0 mm 5 m/s 741 mmHg 67%
    18:00 +15°C° 0 mm 5 m/s 742 mmHg 73%
    19:00 +13°C° 0 mm 4 m/s 742 mmHg 78%
    20:00 +12°C° 0 mm 3 m/s 742 mmHg 84%
    21:00 +11°C° 0 mm 3 m/s 742 mmHg 88%
    22:00 +9°C° 0 mm 2 m/s 742 mmHg 92%
    23:00 +8°C° 0 mm 2 m/s 742 mmHg 95%

    Depois de amanhã, 26 Maio, Domingo

    Tempo Temperatura Precipitação Vento Pressão Humidade
    00:00 +7°C° 0 mm 2 m/s 742 mmHg 95%
    01:00 +7°C° 0 mm 2 m/s 743 mmHg 95%
    02:00 +7°C° 0 mm 2 m/s 743 mmHg 95%
    03:00 +7°C° 0 mm 2 m/s 742 mmHg 95%
    04:00 +7°C° 0 mm 2 m/s 742 mmHg 95%
    05:00 +7°C° 0 mm 2 m/s 742 mmHg 95%
    06:00 +9°C° 0 mm 3 m/s 742 mmHg 90%
    07:00 +11°C° 0 mm 3 m/s 742 mmHg 85%
    08:00 +13°C° 0 mm 4 m/s 742 mmHg 79%
    09:00 +14°C° 0 mm 4 m/s 742 mmHg 74%
    10:00 +15°C° 0 mm 4 m/s 742 mmHg 68%
    11:00 +17°C° 0 mm 4 m/s 741 mmHg 63%
    12:00 +17°C° 0 mm 5 m/s 741 mmHg 60%
    13:00 +19°C° 0 mm 5 m/s 741 mmHg 58%
    14:00 +19°C° 0 mm 6 m/s 740 mmHg 56%
    15:00 +17°C° 0.3 mm 5 m/s 740 mmHg 65%
    16:00 +15°C° 0.3 mm 5 m/s 740 mmHg 75%
    17:00 +14°C° 0.3 mm 5 m/s 740 mmHg 85%
    18:00 +13°C° 0.1 mm 4 m/s 740 mmHg 86%
    19:00 +12°C° 0.1 mm 3 m/s 740 mmHg 88%
    20:00 +13°C° 0.1 mm 2 m/s 740 mmHg 90%
    21:00 +12°C° 0 mm 2 m/s 740 mmHg 92%
    22:00 +10°C° 0 mm 2 m/s 740 mmHg 93%
    23:00 +9°C° 0 mm 2 m/s 740 mmHg 95%

    27 Maio, Segunda-feira

    Tempo Temperatura Precipitação Vento Pressão Humidade
    00:00 +10°C° 0.1 mm 3 m/s 740 mmHg 94%
    01:00 +10°C° 0.1 mm 3 m/s 740 mmHg 93%
    02:00 +11°C° 0.1 mm 3 m/s 740 mmHg 92%
    03:00 +11°C° 0.1 mm 3 m/s 740 mmHg 93%
    04:00 +11°C° 0.1 mm 3 m/s 740 mmHg 93%
    05:00 +11°C° 0.1 mm 3 m/s 740 mmHg 94%
    06:00 +11°C° 0 mm 3 m/s 740 mmHg 92%
    07:00 +12°C° 0 mm 4 m/s 740 mmHg 90%
    08:00 +13°C° 0 mm 4 m/s 740 mmHg 88%
    09:00 +15°C° 0 mm 5 m/s 740 mmHg 81%
    10:00 +17°C° 0 mm 6 m/s 740 mmHg 75%
    11:00 +18°C° 0 mm 7 m/s 740 mmHg 68%
    12:00 +20°C° 0.2 mm 7 m/s 739 mmHg 68%
    13:00 +20°C° 0.2 mm 7 m/s 739 mmHg 69%
    14:00 +21°C° 0.2 mm 7 m/s 739 mmHg 69%
    15:00 +20°C° 0.8 mm 7 m/s 739 mmHg 73%
    16:00 +20°C° 0.8 mm 6 m/s 739 mmHg 77%
    17:00 +19°C° 0.8 mm 5 m/s 739 mmHg 82%
    18:00 +17°C° 0.7 mm 5 m/s 739 mmHg 85%
    19:00 +18°C° 0.7 mm 4 m/s 739 mmHg 88%
    20:00 +17°C° 0.7 mm 4 m/s 739 mmHg 91%
    21:00 +16°C° 0.2 mm 3 m/s 739 mmHg 93%
    22:00 +14°C° 0.2 mm 3 m/s 740 mmHg 94%
    23:00 +13°C° 0.2 mm 3 m/s 740 mmHg 96%

    28 Maio, Terça-feira

    Tempo Temperatura Precipitação Vento Pressão Humidade
    00:00 +13°C° 0 mm 2 m/s 741 mmHg 96%
    01:00 +12°C° 0 mm 2 m/s 741 mmHg 97%
    02:00 +12°C° 0 mm 2 m/s 741 mmHg 97%
    03:00 +10°C° 0 mm 2 m/s 742 mmHg 97%
    04:00 +10°C° 0 mm 2 m/s 742 mmHg 97%
    05:00 +10°C° 0 mm 1 m/s 742 mmHg 97%
    06:00 +11°C° 0 mm 1 m/s 742 mmHg 92%
    07:00 +13°C° 0 mm 1 m/s 743 mmHg 86%
    08:00 +14°C° 0 mm 1 m/s 743 mmHg 81%
    09:00 +15°C° 0 mm 1 m/s 743 mmHg 79%
    10:00 +16°C° 0 mm 1 m/s 743 mmHg 77%
    11:00 +17°C° 0 mm 2 m/s 743 mmHg 75%
    12:00 +17°C° 0 mm 2 m/s 742 mmHg 73%
    13:00 +18°C° 0 mm 2 m/s 742 mmHg 71%
    14:00 +19°C° 0 mm 3 m/s 742 mmHg 69%
    15:00 +18°C° 0.7 mm 3 m/s 742 mmHg 77%
    16:00 +17°C° 0.7 mm 3 m/s 741 mmHg 84%
    17:00 +17°C° 0.7 mm 3 m/s 741 mmHg 91%
    18:00 +16°C° 1.4 mm 3 m/s 740 mmHg 93%
    19:00 +16°C° 1.4 mm 3 m/s 740 mmHg 95%
    20:00 +14°C° 1.4 mm 3 m/s 740 mmHg 97%
    21:00 +14°C° 0.6 mm 3 m/s 739 mmHg 97%
    22:00 +14°C° 0.6 mm 4 m/s 739 mmHg 97%
    23:00 +14°C° 0.6 mm 4 m/s 738 mmHg 97%

    29 Maio, Quarta-feira

    Tempo Temperatura Precipitação Vento Pressão Humidade
    00:00 +14°C° 0.5 mm 3 m/s 738 mmHg 97%
    01:00 +14°C° 0.5 mm 3 m/s 738 mmHg 98%
    02:00 +14°C° 0.5 mm 3 m/s 738 mmHg 98%
    03:00 +14°C° 0.3 mm 4 m/s 738 mmHg 97%
    04:00 +13°C° 0.3 mm 5 m/s 738 mmHg 96%
    05:00 +13°C° 0.3 mm 6 m/s 738 mmHg 96%
    06:00 +13°C° 0.1 mm 6 m/s 738 mmHg 94%
    07:00 +11°C° 0.1 mm 6 m/s 739 mmHg 93%
    08:00 +11°C° 0.1 mm 6 m/s 739 mmHg 92%
    09:00 +13°C° 0 mm 6 m/s 740 mmHg 89%
    10:00 +13°C° 0 mm 5 m/s 741 mmHg 87%
    11:00 +14°C° 0 mm 5 m/s 741 mmHg 84%
    12:00 +14°C° 0 mm 4 m/s 742 mmHg 82%
    13:00 +14°C° 0 mm 4 m/s 743 mmHg 81%
    14:00 +15°C° 0 mm 4 m/s 743 mmHg 79%
    15:00 +14°C° 0 mm 4 m/s 743 mmHg 79%
    16:00 +14°C° 0 mm 4 m/s 743 mmHg 78%
    17:00 +13°C° 0 mm 4 m/s 744 mmHg 78%
    18:00 +12°C° 0 mm 4 m/s 744 mmHg 78%
    19:00 +12°C° 0 mm 3 m/s 744 mmHg 78%
    20:00 +12°C° 0 mm 2 m/s 744 mmHg 78%
    21:00 +12°C° 0 mm 2 m/s 745 mmHg 78%
    22:00 +10°C° 0 mm 2 m/s 745 mmHg 77%
    23:00 +10°C° 0 mm 2 m/s 745 mmHg 77%
    Mostrar mais